Regional Weather Roundup
Issued by NWS

Home | Current Version | Previous Version | Text Only | Print | Product List | Glossary Off
Versions: 1 2 3 4 5 6 7 8 9 10 11 12 13 14 15 16 17 18 19 20 21 22 23 24 25 26 27 28 29 30 31 32 33 34 35 36 37 38 39 40 41 42 43 44 45 46 47 48 49 50

000
ASUS45 KSLC 280610
RWRUT

UTAH REGIONAL WEATHER ROUNDUP
NATIONAL WEATHER SERVICE SALT LAKE CITY UT
1200 AM MDT THU JUL 28 2016

UTZ001>011-023>025-280700-

NORTHERN UTAH

CITY           SKY/WX    TMP DP  RH WIND       PRES   REMARKS
BRIGHAM CITY     N/A     75  45  34 CALM      30.04S
HILL AFB       CLEAR     77  35  21 E16       30.07F
LOGAN          CLEAR     71  48  43 NE3       30.07S
OGDEN          CLEAR     78  35  21 S8        30.03F
PROVO AIRPORT  CLEAR     72  45  37 SE3       30.06S
SALT LAKE CITY CLEAR     83  32  16 SE7       30.02R
VERNAL         CLEAR     67  38  34 W5        30.12S
WENDOVER       CLEAR     82  28  14 CALM      30.03S
HEBER CITY     CLEAR     59  37  44 CALM      30.17S

$$

UTZ012>022-026-027-280700-

SOUTHERN/CENTRAL UTAH

CITY           SKY/WX    TMP DP  RH WIND       PRES   REMARKS
BLANDING       CLEAR     74  28  18 N12       30.23S
BRYCE CANYON   CLEAR     59  34  39 NW6       30.37S
CEDAR CITY     CLEAR     80  29  15 SE8       30.15F
DELTA          CLEAR     77  30  18 NE8       30.06S
MILFORD        CLEAR     75  21  13 NW8       30.07S
MOAB/CYNLANDS  CLEAR     86  28  12 NE6       30.03R
PRICE          CLEAR     76  22  13 NW6       30.18S
ST GEORGE      CLEAR     91  34  13 E9        29.89S

$$

REGIONAL REPORTS     COLORADO/ARIZONA

CITY           SKY/WX    TMP DP  RH WIND       PRES   REMARKS
CRAIG, CO      CLEAR     55  38  52 E6        30.23R
GRAND JUNCTION CLEAR     77  30  17 N3        30.07R
RIFLE          CLEAR     70  30  22 SE6       30.16R
MONTROSE       CLEAR     74  36  25 SE14      30.19R
CORTEZ         CLEAR     65  41  41 NE7       30.19R
PAGE, AZ       CLEAR     89  30  12 SW7       30.00S
GRAND CANYON   CLEAR     64  42  44 CALM      30.27F
KINGMAN        CLEAR     81  47  30 VRB3      29.98S
FLAGSTAFF      PTCLDY    73  44  35 CALM      30.30R

$$

REGIONAL REPORTS    NEVADA/IDAHO/WYOMING

CITY           SKY/WX    TMP DP  RH WIND       PRES   REMARKS
LAS VEGAS, NV  PTCLDY   102  44  14 S6        29.78F HX  98
ELY            MOCLDY    71  22  15 SE6       30.21R
ELKO           CLEAR     70  25  18 CALM      30.12S
POCATELLO, ID  CLEAR     71  33  24 CALM      30.06S
BURLEY         CLEAR     67  52  58 SW8       30.03S
EVANSTON, WY   CLEAR     67  24  19 SE9       30.30F
ROCK SPRINGS   CLEAR     71  20  14 W5        30.26S
KEMMERER         N/A     61  30  31 N9        30.32S

$$



USA.gov is the U.S. government's official web portal to all federal, state and local government web resources and services.